Terminal Aerodrome Forecast
Issued by NWS Sioux Falls, SD

Home | Current Version | Previous Version | Text Only | Print | Product List | Glossary On
Versions: 1 2 3 4 5 6 7 8 9 10 11 12 13 14 15 16 17 18 19 20 21 22 23 24 25 26 27 28 29 30
000
FTUS43 KFSD 241730
TAFSUX
TAF
KSUX 241730Z 2418/2518 33017G25KT P6SM SCT040
     FM242300 34007KT P6SM SCT100
     FM250200 02004KT P6SM OVC050
     FM251100 11010KT 3SM -SN OVC025
     FM251500 11012KT 1SM -SN OVC015=

USA.gov is the U.S. government's official web portal to all federal, state and local government web resources and services.